THOR ABLESTAR DEB, 350

Orbit data source: Space-Track

THOR ABLESTAR DEB, 350 is space debris in LEO originally from a launch on Thu, 29 Jun 1961 UTC launched from the Air Force Eastern Test Range (AFETR). Debris objects in space refer to the collection of defunct objects orbiting the Earth. Examples of debris include non-operational satellites, rocket bodies, and fragments generated from explosions, collisions, or faulty payload assembly.

Loading next visibility...
Identifier
350, 1961-015DQ
Orbit
LEO
Country
Flag of USUS
Related business
Manufacturer
Unknown
Mission
Spacecraft
Bus & Motor
Unknown
Mass
Unknown
Launch date (UTC)
1961-06-29 (65 years ago)
Launch vehicle
Unknown
Launch site
Air Force Eastern Test Range (AFETR)
Object type
Payload
Rocket body
Debris
Shape & HBR
Unknown shape, 0.2 m
Radar Cross Section
Medium (>0.1 m² and <1 m²)

Expand to show TLE details & history
Last TLE update: 15 hours ago

TLE from 15 hours ago
0 THOR ABLESTAR DEB
1 00350U 61015DQ  26033.49268270  .00000209  00000-0  11940-3 0  9992
2 00350  66.9101 215.2859 0130842 251.8572 106.8240 14.22555785343794
Epoch: 2026-02-02T11:49Z
TLE epoch observation values (Epoch: 2026-02-02T11:49:27.785Z)
Latitude
-0.00003°
Longitude
-94.76707°
Altitude
847.21 km
Speed
7.415 km/s
True Right ascension
14h 21m 08s
True Declination
0° 00' 00"
Sunlit
Object was in daylight at epoch
Visualization orbit readout
Latitude
Unknown
Longitude
Unknown
Altitude
Unknown
Speed
Unknown
Apparent Right ascension
Unknown
Apparent Declination
Unknown
Sunlit
N/A
Visualization observer readout
Local Sidereal Time
04:13:22
Azimuth
Unknown
Elevation
Unknown
Doppler factor
Unknown
Orbital elements
Apogee altitude
909.196 km
Perigee altitude
720.961 km
Semi-major axis
7,193.215 km
Eccentricity
0.01308
Inclination
66.9101°
RAAN
215.2859°
Arg. of periapsis
251.8572°
True anomaly
108.25225°
Mean anomaly
106.824°
Eccentric anomaly
107.53882°
Mean motion
3.55761 °/min
Orbital period
101.19 mins
BSTAR
0.0001194
Loading maneuver chart data...
Computing Atmospheric mass density...
Loading historical data...
Loading historical data...
Loading historical data...
Loading historical data...
Loading historical data...
Loading historical data...
Loading historical data...

Documentation

Showing up to 5 results
|